Yankton, SD

2:07 PM CDT on April 26, 2017 (GMT -0500)
Gurney Municipal

Weather History for KYKN - November, 2011

Change the Weather History Date:

Sunday, November 13, 2011

  Actual Average Record
Temperature  
Mean Temperature 46 °F -  
Max Temperature 51 °F 43 °F 75 °F (1999)
Min Temperature 42 °F 23 °F -3 °F (1986)
Degree Days  
Heating Degree Days 18    
Moisture  
Dew Point 33 °F    
Average Humidity 59    
Maximum Humidity 82    
Minimum Humidity 43    
Precipitation  
Precipitation 0.03 in - - ()
Sea Level Pressure  
Sea Level Pressure 29.36 in    
Wind  
Wind Speed 11 mph (WSW)    
Max Wind Speed 28 mph    
Max Gust Speed 36 mph    
Visibility 10 miles    
Events      
Averages and records for this station are not official NWS values.
T = Trace of Precipitation, MM = Missing Value Source: NWS Daily Summary

Daily Weather History Graph

Daily Weather History Graph

Search for Another Location

Airport or City:

Trip Planner

Search our weather history database for the weather conditions in past years. The results will help you decide how hot, cold, wet, or windy it might be!

Date:

Astronomy

Nov. 13, 2011 Rise Set
Actual Time 7:18 AM CST 5:08 PM CST
Civil Twilight 6:48 AM CST 5:38 PM CST
Nautical Twilight 6:14 AM CST 6:12 PM CST
Astronomical Twilight 5:40 AM CST 6:46 PM CST
Moon 7:15 PM CST (11/13) 9:55 AM CST (11/13)
Length of Visible Light 10h 50m
Length of Day
9h 49m
Waning Gibbous, 92% of the Moon is Illuminated
Nov 13
Waning Gibbous
Nov 18
Last Quarter
Nov 25
New
Dec 2
First Quarter
Dec 10
Full

Hourly Weather History & Observations

Time (CST) Temp. Windchill Dew Point Humidity Pressure Visibility Wind Dir Wind Speed Gust Speed Precip Events Conditions
12:15 AM 46.4 °F - 30.2 °F 53% 29.28 in 10.0 mi Calm Calm - N/A   Scattered Clouds
12:35 AM 48.2 °F - 30.2 °F 50% 29.29 in 10.0 mi SSW 6.9 mph - N/A   Partly Cloudy
12:55 AM 48.2 °F - 30.2 °F 50% 29.30 in 10.0 mi West 8.1 mph - N/A   Scattered Clouds
1:15 AM 50.0 °F - 28.4 °F 43% 29.30 in 10.0 mi WNW 12.7 mph - N/A   Mostly Cloudy
1:35 AM 48.2 °F - 33.8 °F 58% 29.28 in 10.0 mi West 12.7 mph - N/A   Mostly Cloudy
2:15 AM 51.8 °F - 39.2 °F 62% 29.28 in 10.0 mi WSW 15.0 mph - N/A   Scattered Clouds
2:35 AM 48.2 °F - 42.8 °F 82% 29.29 in 9.0 mi SW 12.7 mph 16.1 mph 0.01 in   Mostly Cloudy
2:55 AM 50.0 °F - 42.8 °F 76% 29.28 in 10.0 mi SW 9.2 mph - 0.03 in   Overcast
3:15 AM 50.0 °F - 42.8 °F 76% 29.26 in 10.0 mi SSW 5.8 mph - N/A   Scattered Clouds
3:35 AM 50.0 °F - 42.8 °F 76% 29.25 in 10.0 mi SSW 4.6 mph - N/A   Clear
3:55 AM 48.2 °F - 42.8 °F 82% 29.22 in 10.0 mi Calm Calm - N/A   Partly Cloudy
4:15 AM 48.2 °F - 42.8 °F 82% 29.21 in 10.0 mi SSE 4.6 mph - N/A   Scattered Clouds
4:35 AM 48.2 °F - 41.0 °F 76% 29.19 in 10.0 mi East 6.9 mph - N/A   Mostly Cloudy
4:55 AM 46.4 °F - 41.0 °F 81% 29.19 in 10.0 mi Calm Calm - N/A   Overcast
5:15 AM 46.4 °F 42.4 °F 41.0 °F 81% 29.21 in 10.0 mi SW 8.1 mph - N/A   Mostly Cloudy
5:35 AM 44.6 °F 39.7 °F 39.2 °F 81% 29.22 in 10.0 mi SSW 9.2 mph - N/A   Partly Cloudy
5:55 AM 44.6 °F 40.2 °F 39.2 °F 81% 29.22 in 10.0 mi SW 8.1 mph - N/A   Clear
6:15 AM 44.6 °F 39.2 °F 35.6 °F 71% 29.23 in 10.0 mi WSW 10.4 mph - N/A   Clear
6:55 AM 42.8 °F 36.2 °F 30.2 °F 61% 29.24 in 10.0 mi WSW 12.7 mph - N/A   Clear
7:15 AM 42.8 °F 36.2 °F 28.4 °F 57% 29.26 in 10.0 mi WSW 12.7 mph - N/A   Clear
7:35 AM 42.8 °F 35.8 °F 28.4 °F 57% 29.26 in 10.0 mi WSW 13.8 mph 18.4 mph N/A   Mostly Cloudy
7:55 AM 42.8 °F 34.3 °F 28.4 °F 57% 29.29 in 10.0 mi West 19.6 mph 23.0 mph N/A   Overcast
8:35 AM - - - N/A% 29.31 in 10.0 mi NW 23.0 mph - N/A   Overcast
8:55 AM - - - N/A% 29.34 in 10.0 mi NW 27.6 mph 35.7 mph N/A   Overcast
9:15 AM - - - N/A% 29.35 in 10.0 mi NW 26.5 mph 34.5 mph N/A   Overcast
9:35 AM - - - N/A% 29.39 in 10.0 mi WNW 21.9 mph 31.1 mph N/A   Overcast
9:55 AM - - - N/A% 29.41 in 10.0 mi WNW 19.6 mph 26.5 mph N/A   Mostly Cloudy
10:15 AM 42.8 °F 33.5 °F 30.2 °F 61% 29.43 in 10.0 mi WNW 23.0 mph 27.6 mph N/A   Scattered Clouds
10:35 AM 44.6 °F 36.6 °F 32.0 °F 61% 29.43 in 10.0 mi WNW 19.6 mph - N/A   Partly Cloudy
10:55 AM - - - N/A% 29.43 in 10.0 mi WNW 21.9 mph 28.8 mph N/A   Partly Cloudy
11:15 AM 46.4 °F 39.2 °F 32.0 °F 57% 29.44 in 10.0 mi WNW 18.4 mph 24.2 mph N/A   Partly Cloudy
11:35 AM 46.4 °F 39.2 °F 30.2 °F 53% 29.44 in 10.0 mi WNW 18.4 mph - N/A   Clear
11:55 AM 46.4 °F 40.1 °F 32.0 °F 57% 29.44 in 10.0 mi WNW 15.0 mph 18.4 mph N/A   Clear
12:15 PM 46.4 °F 40.1 °F 32.0 °F 57% 29.44 in 10.0 mi West 15.0 mph - N/A   Clear
12:35 PM 48.2 °F - 33.8 °F 58% 29.44 in 10.0 mi WNW 15.0 mph 20.7 mph N/A   Clear
12:55 PM 48.2 °F - 32.0 °F 54% 29.44 in 10.0 mi West 16.1 mph 20.7 mph N/A   Clear
1:15 PM 48.2 °F - 32.0 °F 54% 29.45 in 10.0 mi West 16.1 mph - N/A   Clear
1:35 PM 48.2 °F - 32.0 °F 54% 29.45 in 10.0 mi West 13.8 mph 19.6 mph N/A   Clear
1:55 PM 50.0 °F - 30.2 °F 47% 29.45 in 10.0 mi WSW 17.3 mph - N/A   Clear
2:15 PM 51.8 °F - 30.2 °F 44% 29.45 in 10.0 mi West 17.3 mph - N/A   Clear
2:35 PM 51.8 °F - 30.2 °F 44% 29.45 in 10.0 mi WSW 15.0 mph - N/A   Clear
2:55 PM 51.8 °F - 30.2 °F 44% 29.46 in 10.0 mi West 16.1 mph 19.6 mph N/A   Clear
3:15 PM 51.8 °F - 30.2 °F 44% 29.46 in 10.0 mi SW 12.7 mph 18.4 mph N/A   Clear
3:35 PM 51.8 °F - 30.2 °F 44% 29.45 in 10.0 mi WSW 15.0 mph - N/A   Clear
4:15 PM 50.0 °F - 28.4 °F 43% 29.46 in 10.0 mi SW 9.2 mph - N/A   Clear
4:35 PM 48.2 °F - 28.4 °F 46% 29.44 in 10.0 mi SSW 9.2 mph - N/A   Clear
4:55 PM 46.4 °F 42.4 °F 30.2 °F 53% 29.44 in 10.0 mi SSW 8.1 mph - N/A   Clear
5:15 PM 46.4 °F 42.9 °F 28.4 °F 50% 29.46 in 10.0 mi SSW 6.9 mph - N/A   Clear
5:35 PM 46.4 °F 42.4 °F 26.6 °F 46% 29.47 in 10.0 mi South 8.1 mph - N/A   Clear
5:55 PM 46.4 °F 42.4 °F 26.6 °F 46% 29.47 in 10.0 mi SSW 8.1 mph - N/A   Clear
6:15 PM 44.6 °F 41.4 °F 26.6 °F 49% 29.48 in 10.0 mi SSW 5.8 mph - N/A   Clear
6:35 PM 44.6 °F 39.7 °F 26.6 °F 49% 29.49 in 10.0 mi South 9.2 mph - N/A   Clear
6:55 PM 42.8 °F 38.6 °F 26.6 °F 53% 29.49 in 10.0 mi South 6.9 mph - N/A   Clear
7:15 PM 42.8 °F 38.0 °F 26.6 °F 53% 29.50 in 10.0 mi SSW 8.1 mph - N/A   Clear
7:35 PM 42.8 °F 37.5 °F 26.6 °F 53% 29.50 in 10.0 mi SSW 9.2 mph - N/A   Clear
7:55 PM 42.8 °F 39.3 °F 24.8 °F 49% 29.51 in 10.0 mi SW 5.8 mph - N/A   Clear
8:15 PM 42.8 °F 38.0 °F 24.8 °F 49% 29.51 in 10.0 mi SSW 8.1 mph - N/A   Clear
8:35 PM 42.8 °F 38.0 °F 24.8 °F 49% 29.52 in 10.0 mi SSW 8.1 mph - N/A   Clear
8:55 PM 41.0 °F 36.4 °F 24.8 °F 53% 29.51 in 10.0 mi SSW 6.9 mph - N/A   Clear
9:15 PM 39.2 °F 34.2 °F 24.8 °F 56% 29.51 in 10.0 mi SSW 6.9 mph - N/A   Clear
9:35 PM 39.2 °F 33.6 °F 23.0 °F 52% 29.51 in 10.0 mi SSW 8.1 mph - N/A   Clear
9:55 PM 39.2 °F 33.0 °F 23.0 °F 52% 29.52 in 10.0 mi SSW 9.2 mph - N/A   Clear
10:15 PM 39.2 °F 31.6 °F 23.0 °F 52% 29.51 in 10.0 mi SSW 12.7 mph - N/A   Clear
10:35 PM 39.2 °F - 21.2 °F 49% - 10.0 mi North - - N/A   Clear
10:55 PM 41.0 °F 35.2 °F 21.2 °F 45% 29.51 in 10.0 mi SSW 9.2 mph - N/A   Clear
11:15 PM 41.0 °F 35.2 °F 21.2 °F 45% 29.50 in 10.0 mi SSW 9.2 mph - N/A   Clear
11:35 PM 41.0 °F 35.2 °F 21.2 °F 45% 29.49 in 10.0 mi SSW 9.2 mph - N/A   Clear
11:55 PM 41.0 °F 35.2 °F 21.2 °F 45% 29.49 in 10.0 mi SSW 9.2 mph - N/A   Clear